Regional Weather Roundup
Issued by NWS Albany, NY

Home | Current Version | Previous Version | Text Only | Print | Product List | Glossary On
Versions: 1 2 3 4 5 6 7 8 9 10 11 12 13 14 15 16 17 18 19 20 21 22 23 24 25 26 27
000
ASUS41 KALY 192210
RWRALY

NEW YORK STATE HOURLY WEATHER ROUNDUP
NATIONAL WEATHER SERVICE ALBANY NY
600 PM EDT THU OCT 19 2017

NOTE: "FAIR" INDICATES FEW OR NO CLOUDS BELOW 12,000 FEET WITH NO
SIGNIFICANT WEATHER AND/OR NO OBSTRUCTIONS TO VISIBILITY.

NYZ032-033-038>043-046>054-057>066-NYZ062>081-082-084-192300-
EAST


CITY           SKY/WX    TMP DP  RH WIND       PRES   REMARKS
ALBANY         CLOUDY    68  44  42 S8        29.97S
GLENS FALLS    CLOUDY    67  46  47 S10       29.94R
POUGHKEEPSIE   CLEAR     68  42  38 S5        30.02F
NEWBURGH       PTCLDY    68  45  42 SW8       30.05F
MONTGOMERY     CLEAR     66  45  46 SW9       30.04S
WHITE PLAINS   CLEAR     64  44  48 S7        30.06F
ISLIP          PTCLDY    63  54  72 SW9       30.09F
NEW YORK CITY  PTCLDY    70  39  32 SW10      30.07F
CENTRAL PARK   CLEAR     68  42  38 VRB6      30.10F
$$

NYZ005>009-017-018-044>046-055-056-192300-
CENTRAL


CITY           SKY/WX    TMP DP  RH WIND       PRES   REMARKS
FULTON         MOCLDY    68  48  48 W16G25    29.98R
SYRACUSE       MOCLDY    67  45  45 SW6       29.97R
ROME           MOCLDY    68  43  40 SW6       29.97R
ELMIRA         CLEAR     70  44  39 SW7       30.01R
BINGHAMTON     CLEAR     64  41  42 SW9       30.04S
MONTICELLO     CLEAR     65  45  48 SW5       30.07R
$$

NYZ026>034-041>043-087-192300-
NORTH


CITY           SKY/WX    TMP DP  RH WIND       PRES   REMARKS
WATERTOWN      CLEAR     63  55  75 SW13G22   29.94R
FORT DRUM      NOT AVBL
OGDENSBURG     FAIR      64  53  69 SW13G20   29.89S
MASSENA        CLEAR     65  52  62 SW15G25   29.88R
SARANAC LAKE   CLOUDY    62  42  47 SW12G26   29.91R
PLATTSBURGH    MOCLDY    70  41  34 SW9G21    29.86R
$$

NYZ001>004-010>016-019>021-085-192300-
WEST


CITY           SKY/WX    TMP DP  RH WIND       PRES   REMARKS
NIAGARA FALLS  PTCLDY    64  53  67 W17       30.03R
BUFFALO        PTCLDY    62  53  72 W18G30    30.03R
DUNKIRK        CLEAR     62  56  80 SW13      30.08R
JAMESTOWN      MOCLDY    64  48  56 SW14      30.10R
WELLSVILLE     CLEAR     66  43  43 W14       30.09R
ROCHESTER      MOCLDY    67  52  58 W15G28    30.01R
PENN YAN       CLEAR     70  43  37 W12       30.01R
$$

             KEY
       WCI = WIND CHILL INDEX
       VSB = VISIBILITY
       HX  = HEAT INDEX
$$




USA.gov is the U.S. government's official web portal to all federal, state and local government web resources and services.